Wind_Speed
20 20 21 23 23 22 21 21 20 18 17 17 17 17 17 17 17 18 20 20 20 20 19 18 17 16 16 15 15 16 16 16 16 15 14 13 12 11 10 10 10 10 11 11 10 10 10 11 11 11 11 11 11 11 11 11 10 10 10 10 9 9 8 7 6 5 4 4 4 5 6 6 6 6 7 7 7 6 6 6 5 4 3 1 1
24 23 23 24 23 22 21 22 22 20 18 17 17 16 16 16 17 19 20 20 19 19 18 18 17 17 16 16 16 16 16 16 16 16 15 14 13 12 11 10 10 11 11 11 10 9 10 10 10 10 10 10 10 10 10 10 9 9 9 9 9 8 7 6 5 4 3 3 4 4 5 6 6 6 7 7 7 7 7 6 6 5 4 3 2
27 26 25 25 23 23 22 22 22 20 18 17 16 16 16 16 18 19 20 20 19 18 17 18 18 17 17 17 17 17 17 17 17 16 16 15 14 13 12 11 11 12 12 12 10 10 10 10 9 9 9 9 9 9 9 9 9 9 9 8 8 7 6 5 5 4 3 3 3 3 4 6 6 6 7 8 8 7 7 7 6 5 4 3 2
28 28 28 27 26 24 23 23 22 19 17 17 16 16 16 17 19 20 20 19 18 17 17 18 18 18 18 18 18 18 18 17 17 17 16 15 15 13 12 12 12 12 12 12 11 10 11 10 9 9 9 9 9 9 9 9 9 8 8 8 7 6 5 5 4 3 3 3 3 4 4 6 6 7 8 8 8 8 8 7 7 6 5 4 2
30 30 30 29 28 27 25 24 23 20 18 17 17 17 17 18 19 20 20 19 18 17 17 18 18 18 19 19 19 19 19 18 17 16 16 15 14 13 12 12 13 13 13 12 11 11 11 10 9 9 9 9 9 9 8 8 8 8 8 7 7 6 5 4 4 3 3 3 3 4 5 6 7 7 8 8 9 8 8 8 7 7 6 5 3
32 31 31 31 30 29 27 26 24 22 19 19 18 18 18 19 20 21 20 19 18 17 17 18 18 18 19 20 20 20 20 18 17 16 16 15 14 12 11 11 12 12 13 12 11 12 12 10 9 9 8 8 8 8 8 8 8 8 7 7 7 6 5 4 4 3 3 3 3 4 5 6 7 7 7 8 9 9 9 8 7 6 6 5 4
34 33 31 32 33 31 29 28 26 24 21 20 20 20 19 20 21 21 20 19 17 17 18 18 18 19 20 21 21 21 21 19 18 16 16 15 13 12 11 11 12 12 13 12 11 12 12 11 10 9 8 8 8 8 8 8 8 8 7 7 7 6 6 4 4 4 3 4 3 4 5 6 7 7 7 8 9 9 9 9 8 7 6 5 4
35 34 33 34 35 34 31 28 27 25 23 22 22 21 21 21 22 21 20 19 17 18 18 18 18 19 20 21 21 22 22 20 18 17 16 14 13 11 11 11 12 12 13 12 12 12 12 11 10 9 8 7 7 8 8 8 8 9 8 8 7 7 6 5 4 4 3 4 4 5 6 6 7 7 7 8 8 9 9 9 9 8 7 6 5
37 37 36 36 36 34 31 28 27 26 24 23 23 22 22 23 22 21 20 18 18 19 19 19 19 19 20 21 21 22 22 20 18 17 15 14 12 11 11 11 11 12 12 12 12 12 12 12 11 10 8 8 8 8 8 8 9 9 9 8 8 7 6 5 4 4 3 4 5 6 6 6 6 7 7 8 8 9 9 10 9 8 8 7 6
39 39 39 38 35 33 30 28 27 26 25 25 24 23 23 23 23 21 20 19 18 19 20 20 20 20 20 21 21 22 22 21 18 16 15 13 12 11 10 10 11 12 13 12 12 12 13 13 12 10 9 8 8 7 7 8 9 10 10 9 8 8 7 6 4 4 4 4 5 6 6 6 6 7 7 8 8 9 10 10 10 9 8 8 7
40 40 41 37 33 31 29 27 26 25 25 25 24 24 24 24 22 21 20 19 20 21 21 21 20 21 21 21 21 21 22 21 19 16 15 13 12 11 10 10 11 12 13 12 12 13 14 14 12 10 9 9 8 7 7 8 10 11 11 9 8 9 8 7 5 4 4 4 5 6 6 6 6 6 7 8 9 9 10 10 10 10 9 8 8
40 40 37 32 30 29 27 26 25 25 25 25 25 25 25 24 23 21 20 20 21 22 21 21 21 22 22 21 21 22 22 21 19 17 14 12 11 11 10 10 10 12 13 12 12 14 14 13 12 11 10 10 8 7 7 8 10 11 11 10 9 9 9 8 6 5 4 4 5 5 5 5 5 6 7 8 9 10 10 10 10 10 10 9 9
36 33 29 27 27 27 26 25 24 24 24 25 25 25 24 24 23 22 21 22 22 22 22 22 22 23 22 22 22 22 22 20 19 17 15 12 11 11 10 10 11 12 13 13 13 14 13 12 12 12 11 10 9 8 8 8 9 11 12 11 9 9 10 9 8 6 5 4 5 5 5 5 6 6 7 8 9 10 11 10 10 10 10 10 9
29 27 25 25 26 25 24 24 23 24 25 26 25 25 24 24 24 23 23 23 23 22 22 22 23 23 22 22 23 23 21 20 18 16 15 12 11 11 11 11 11 12 13 13 13 14 12 11 12 12 12 10 9 9 8 8 8 10 12 12 10 9 10 10 9 7 6 5 5 5 5 5 6 7 7 8 9 10 11 11 11 11 10 10 9
24 25 24 24 24 24 23 23 23 24 26 26 25 25 25 25 24 24 24 24 23 22 22 23 23 23 23 23 23 22 20 19 17 16 15 13 12 12 11 11 12 12 13 14 14 13 12 11 12 13 13 11 11 10 9 8 8 9 12 13 11 10 10 10 10 8 7 5 5 5 5 6 6 7 7 8 9 10 11 12 12 11 11 10 10
23 23 23 23 23 22 22 23 24 25 25 25 25 26 26 25 25 24 25 24 23 22 22 23 23 23 23 23 22 21 19 18 17 16 15 13 12 12 12 12 12 13 13 14 14 13 12 12 13 13 13 13 12 11 10 8 7 8 12 14 12 10 10 10 10 9 8 7 6 6 6 6 7 7 8 8 9 10 11 12 12 12 11 11 11
23 23 23 23 22 22 23 24 25 26 25 25 26 27 26 25 25 25 25 23 22 21 22 22 22 23 23 22 21 20 19 18 17 16 15 13 12 11 11 11 12 13 13 14 15 14 13 13 14 14 14 14 14 13 11 8 6 8 11 14 13 11 11 11 11 10 9 9 8 7 7 7 8 8 8 8 8 9 10 11 12 12 12 12 11
22 22 23 23 23 23 24 26 26 26 25 26 27 27 26 26 26 26 25 23 21 21 22 22 22 22 22 21 21 20 19 18 17 16 14 11 10 10 11 11 12 13 14 15 15 15 14 14 14 15 16 16 15 14 12 8 6 7 10 14 14 12 11 11 11 11 11 10 9 9 8 8 8 8 8 8 8 9 9 10 11 12 12 12 12
22 22 22 23 24 25 26 26 26 26 26 27 28 27 26 26 26 25 24 22 22 22 22 22 22 22 21 21 20 19 18 17 16 15 13 11 10 10 11 12 13 15 16 16 15 15 15 15 16 16 17 17 16 14 12 9 6 7 9 13 15 14 12 12 12 12 12 12 11 10 10 9 9 9 8 8 8 9 9 9 9 10 11 12 13
22 22 22 23 25 26 26 25 25 26 27 27 27 27 26 26 25 24 23 22 21 21 21 22 22 21 21 21 20 18 17 16 14 13 11 9 9 10 11 13 14 17 18 17 16 16 16 16 17 18 18 18 17 15 13 11 8 7 9 12 14 15 13 12 13 13 13 13 13 12 11 10 10 9 9 8 8 8 9 9 9 9 10 11 12
23 23 24 25 26 26 25 25 25 26 27 27 27 26 26 25 24 24 23 22 21 20 21 22 22 22 22 21 19 18 16 14 13 11 9 8 8 9 11 13 15 17 19 18 17 17 16 16 18 19 19 19 18 16 14 13 10 8 9 11 14 15 13 12 13 14 14 14 14 13 12 11 10 10 9 9 8 8 8 8 9 9 9 9 10
25 25 26 27 26 25 25 25 26 26 26 26 26 26 26 25 24 24 23 22 20 19 20 20 20 20 19 19 18 17 15 13 12 11 9 8 8 9 11 14 15 17 18 18 17 17 16 17 18 19 20 20 18 17 16 15 13 10 9 11 14 15 13 12 12 14 15 15 14 14 12 12 11 11 11 10 10 9 8 8 8 9 10 10 10
27 28 28 27 26 25 25 26 27 26 25 25 26 27 26 25 23 22 21 20 18 18 18 17 17 17 17 17 16 15 14 14 14 12 10 10 9 11 13 15 17 17 18 18 17 16 16 17 18 19 20 19 19 18 17 17 14 12 10 11 14 14 14 13 12 14 16 16 14 14 13 13 13 12 12 12 12 11 10 9 8 9 9 10 10
29 29 27 26 25 25 26 27 27 25 25 26 26 26 26 24 22 20 18 17 16 17 16 16 17 17 16 15 14 14 14 15 16 15 12 12 12 13 15 17 18 18 18 17 16 15 16 17 19 20 20 19 19 19 18 18 16 13 11 11 13 14 14 13 13 14 16 16 14 14 14 15 14 14 14 14 14 13 12 11 10 9 9 10 10
28 26 26 25 25 26 28 28 26 25 25 26 26 26 25 22 20 18 16 15 15 15 16 16 17 16 14 13 13 14 15 16 16 16 14 14 13 14 16 17 18 18 17 17 15 15 16 18 19 20 19 18 18 19 19 19 18 14 12 11 12 13 13 12 12 14 16 16 16 16 16 17 16 16 16 16 16 15 14 13 12 11 10 10 10
25 24 25 26 27 27 27 26 25 24 24 25 25 24 22 20 19 18 16 15 14 15 16 16 15 13 12 12 13 13 14 14 15 15 15 14 13 13 14 14 15 16 16 15 15 16 17 18 20 20 19 18 17 19 20 20 18 15 12 11 12 13 12 12 13 14 16 18 18 18 18 18 18 18 17 17 17 17 16 15 14 13 12 12 11
24 25 26 27 26 26 24 23 23 21 21 22 22 21 20 18 18 17 16 14 13 15 16 14 13 12 13 14 14 13 13 13 14 14 15 14 14 13 12 12 14 15 15 15 16 17 18 19 20 20 19 18 18 19 20 20 18 16 13 11 10 11 13 13 14 17 18 18 18 18 18 18 19 19 19 18 18 18 18 17 16 16 15 14 13
25 25 25 26 24 24 23 22 20 19 19 20 19 18 17 16 16 15 15 14 13 14 14 13 13 13 14 14 13 12 12 13 14 14 14 15 14 13 13 14 15 15 15 16 16 17 19 19 20 19 19 18 19 19 19 19 18 16 14 12 10 11 14 15 16 17 18 17 17 17 18 18 18 19 20 20 19 19 19 18 18 17 16 16 16
25 25 25 24 23 23 24 22 20 19 20 19 17 16 15 16 17 15 14 13 13 14 15 14 14 13 13 13 13 12 12 12 12 12 13 13 13 13 14 15 15 15 15 16 17 18 18 19 18 18 18 18 18 18 17 18 18 16 15 13 12 12 14 16 16 16 16 16 17 17 18 18 19 19 20 20 19 19 19 19 18 18 17 17 18
22 23 23 22 20 20 21 21 20 19 20 19 16 15 14 15 16 14 12 12 13 14 14 14 13 13 13 13 13 11 10 10 10 10 11 11 12 12 14 15 15 15 15 16 17 17 18 17 17 17 17 17 16 16 16 16 16 15 14 13 14 15 16 16 15 14 15 16 17 17 17 18 18 19 19 19 18 18 19 19 18 18 19 19 19
21 22 21 19 20 20 19 19 20 19 20 18 15 14 13 13 13 12 11 11 12 12 11 12 12 12 13 13 12 10 9 10 10 10 11 12 11 12 14 15 16 15 15 16 16 16 16 16 15 15 15 14 14 15 15 14 14 14 14 13 14 15 16 16 14 13 14 16 17 17 17 17 17 18 18 17 18 18 19 19 20 20 20 21 21
15 18 19 20 21 19 16 16 18 19 18 16 14 12 11 11 11 11 11 11 12 12 12 12 12 13 13 12 11 10 10 11 11 11 12 12 12 13 15 16 15 14 14 15 15 14 13 13 13 13 12 11 11 12 13 13 13 14 14 14 14 14 16 16 13 12 14 15 16 16 16 16 16 17 17 17 17 17 18 19 20 20 21 21 22
13 15 19 22 22 20 16 16 16 16 17 15 13 10 10 10 11 12 13 13 13 13 12 12 12 13 12 11 10 11 11 11 11 11 13 13 13 14 15 15 13 13 13 13 12 11 11 11 11 10 9 9 9 10 11 12 13 14 14 15 14 13 15 15 13 13 13 12 12 13 14 14 15 18 18 17 16 16 17 19 19 20 20 21 22
15 15 15 14 17 21 21 19 17 16 15 13 11 8 8 9 9 10 12 12 12 11 10 11 12 13 13 12 12 11 10 9 8 10 13 14 14 13 14 13 12 11 11 10 10 9 9 9 9 8 7 7 7 8 9 10 11 12 13 13 12 12 13 13 12 13 11 9 10 10 11 13 14 17 19 17 15 14 15 17 19 20 21 21 21
18 19 17 13 14 17 18 19 17 15 13 12 11 9 9 8 8 8 9 10 11 10 10 12 13 14 14 14 13 11 10 9 10 10 12 13 13 13 13 12 10 10 10 10 9 8 8 8 7 5 5 5 5 6 7 8 9 10 10 10 9 10 11 10 10 10 8 7 8 7 8 10 11 13 16 16 14 13 13 14 16 18 19 20 20
20 22 22 22 21 18 16 14 13 13 12 12 12 10 9 8 8 8 9 10 12 12 13 14 14 14 13 13 13 12 11 12 12 12 12 13 13 13 12 11 10 10 10 10 9 8 8 7 6 5 5 4 5 5 6 7 7 7 8 7 7 9 10 9 8 8 7 6 6 5 5 7 7 9 11 12 12 11 11 12 13 14 15 17 18
19 19 20 21 19 16 15 12 9 10 10 11 10 10 10 9 10 10 10 11 13 14 15 14 13 12 11 12 14 14 14 14 13 13 12 13 13 13 12 11 11 11 10 10 9 9 8 7 6 5 5 5 5 6 6 6 6 5 5 4 3 5 8 8 7 6 5 5 5 4 4 5 6 7 8 9 10 10 11 11 11 12 12 13 14
19 18 18 18 16 16 15 11 8 9 9 9 8 8 9 10 10 10 10 10 11 13 13 12 10 9 10 12 13 14 14 13 13 13 13 13 13 13 12 11 11 11 10 10 9 9 8 8 7 6 6 6 7 8 7 6 5 5 5 4 3 2 5 7 6 5 5 5 6 5 5 5 6 7 8 9 9 9 10 10 10 10 11 11 12
17 17 17 17 16 16 14 12 11 11 10 9 8 8 9 10 10 9 9 10 10 10 11 11 10 10 12 13 13 14 13 11 12 13 13 13 13 12 12 12 11 10 9 9 9 9 8 9 8 7 7 7 8 9 7 6 5 5 6 6 5 3 5 7 6 5 5 5 6 6 6 7 7 8 8 9 9 8 7 8 9 9 10 11 13
15 16 17 16 16 15 14 14 13 12 12 12 12 12 11 10 10 9 9 9 8 8 9 10 10 10 10 11 12 13 11 11 12 13 13 13 12 12 12 12 11 9 9 9 9 9 9 10 9 8 8 8 8 9 8 7 6 6 7 7 6 4 6 8 7 6 6 6 7 7 7 8 8 8 9 10 9 8 7 7 8 9 10 11 13
14 15 15 15 15 15 15 14 12 10 11 12 13 14 14 12 10 10 9 8 8 9 9 8 9 9 8 9 10 11 10 10 11 12 12 12 12 12 12 11 10 9 9 9 9 10 10 11 10 9 8 8 9 9 8 8 7 7 8 7 6 5 6 7 7 6 7 8 8 9 8 9 9 8 9 10 9 9 9 8 8 8 9 10 11
13 14 14 14 13 13 13 12 10 9 10 11 13 14 14 13 11 10 9 8 8 11 10 7 7 8 7 8 9 10 10 11 12 12 12 13 13 13 12 11 10 9 9 9 10 10 11 11 10 9 8 9 9 9 10 9 8 8 8 8 7 6 6 7 7 7 7 9 10 10 9 9 9 10 10 9 9 10 10 9 8 9 9 10 10
12 12 12 12 12 12 11 10 10 10 12 12 13 14 13 13 12 11 10 9 9 12 11 7 7 7 8 9 10 11 11 12 13 13 13 13 13 13 12 11 10 10 10 10 10 10 11 10 10 9 8 8 9 9 10 9 9 9 9 9 8 7 7 8 9 9 9 9 9 9 9 9 10 11 11 10 10 10 9 10 10 10 10 11 11
12 12 12 13 13 12 11 11 11 12 13 14 14 14 14 13 12 12 10 9 9 10 10 9 7 7 9 10 12 13 13 14 14 14 13 13 13 12 12 12 11 10 10 10 10 9 9 9 9 8 8 8 8 9 9 9 9 9 10 10 9 9 8 9 10 10 10 10 10 10 10 10 10 12 12 11 12 11 10 11 11 11 11 11 12
13 12 13 14 14 13 11 12 13 14 15 16 16 16 15 14 13 12 11 10 11 11 10 9 8 9 10 12 13 13 13 14 13 13 12 11 11 11 11 11 10 10 10 10 9 9 9 9 9 9 8 8 8 9 9 8 9 9 9 10 10 10 10 10 10 11 11 10 11 11 11 11 11 12 12 12 12 12 11 12 12 11 11 11 12
13 13 13 14 14 13 11 12 14 15 16 17 17 18 17 15 15 14 13 14 14 13 11 10 11 12 12 12 12 12 12 11 11 10 10 9 10 10 10 11 11 11 11 11 10 9 9 9 10 10 9 8 8 8 9 8 8 9 9 10 10 11 11 12 12 11 11 10 10 11 11 11 12 12 12 12 12 12 12 12 12 12 11 12 12
13 13 12 13 13 12 12 12 13 13 15 16 17 17 17 16 16 14 13 14 14 13 13 13 14 14 13 12 11 10 10 9 9 9 9 10 10 10 11 11 11 12 12 12 11 11 10 10 10 10 10 9 9 9 9 9 9 9 9 9 10 12 12 12 12 12 11 10 10 10 10 11 11 12 13 13 13 13 13 13 13 13 13 13 13
14 13 12 13 13 13 13 14 13 12 13 15 17 17 16 16 16 14 13 12 13 13 13 14 16 16 14 11 9 9 8 8 9 10 10 10 9 10 10 11 11 12 13 12 12 12 12 12 12 11 11 11 10 10 9 10 10 10 10 10 11 12 12 12 12 12 11 11 11 11 11 11 12 12 13 13 14 14 14 14 14 14 14 14 14
15 14 13 14 13 14 14 15 16 15 14 14 15 17 15 15 16 15 14 13 13 13 12 14 17 16 13 10 8 8 9 10 10 10 10 9 9 10 10 10 11 13 13 13 13 13 13 13 13 13 13 13 13 12 11 11 11 11 11 11 12 12 12 12 12 13 12 12 12 12 12 12 13 13 13 13 14 14 15 15 15 14 14 14 14
15 14 14 14 13 13 14 14 16 16 16 15 15 16 16 16 16 15 15 15 13 12 13 15 17 15 12 10 10 10 10 11 11 10 10 10 10 11 11 11 12 13 13 13 13 13 13 14 14 14 15 15 15 14 13 13 13 13 13 13 14 13 13 13 13 14 14 13 13 14 14 13 13 13 13 14 14 15 16 16 15 15 15 14 14
14 13 13 13 13 13 13 13 13 14 15 16 15 15 16 18 18 18 17 16 14 13 14 17 18 17 15 13 12 11 11 11 10 10 11 12 12 12 13 13 12 13 13 14 13 13 13 13 13 14 15 16 16 16 15 15 15 15 15 15 15 14 13 13 14 14 14 14 14 15 15 15 15 14 14 15 15 16 16 16 16 16 15 15 15
Wind_Direction
274 284 291 295 295 297 300 300 298 295 290 286 287 289 292 294 298 302 304 305 304 304 307 314 319 322 325 327 330 330 329 329 329 328 327 321 310 303 300 298 297 298 298 301 309 321 323 320 323 324 320 317 316 315 316 315 312 311 313 313 315 320 324 325 325 320 308 292 267 252 243 234 226 224 220 213 202 190 181 172 169 165 151 114 71
270 277 286 293 294 294 295 296 293 289 285 283 284 286 289 290 295 300 301 301 299 301 307 313 316 320 323 325 326 326 327 327 327 326 325 320 312 302 298 295 292 294 297 300 310 323 321 319 322 320 317 316 316 317 317 313 310 311 313 313 316 320 323 323 320 311 298 282 263 248 242 236 225 223 222 216 208 196 186 179 174 173 167 155 135
272 278 287 293 293 291 290 290 289 284 279 279 282 284 286 288 293 298 298 296 295 299 306 311 314 318 321 322 322 323 324 326 326 324 322 319 313 305 297 291 288 290 295 300 311 321 318 318 318 315 315 316 318 319 316 312 311 311 311 311 312 316 319 319 317 307 294 278 261 249 243 239 227 220 223 219 213 202 192 185 179 177 178 170 151
277 283 290 293 292 290 287 285 285 281 276 277 280 283 284 287 293 296 293 291 292 298 305 309 313 316 318 318 319 320 323 325 325 322 320 318 315 306 296 288 285 288 293 299 309 316 314 315 313 312 316 318 321 319 316 312 310 310 307 307 308 312 316 316 317 308 292 277 261 253 245 240 228 217 221 219 214 207 198 190 184 181 182 181 168
278 283 289 291 290 289 287 283 282 279 275 276 281 284 284 287 292 292 289 287 291 298 304 307 311 313 314 315 316 317 320 323 323 320 317 317 314 305 293 286 285 288 291 295 304 309 310 312 311 311 316 320 322 317 313 311 308 307 304 304 306 309 311 312 311 304 289 275 256 251 245 239 229 217 218 219 214 209 203 196 190 188 185 184 182
276 279 284 288 289 288 286 283 281 278 276 279 283 284 284 287 289 287 285 285 291 298 301 304 308 310 311 313 314 314 317 320 320 318 315 315 312 299 288 283 285 288 289 293 301 304 306 311 311 312 316 320 319 313 311 310 308 306 303 304 306 307 306 306 304 295 281 268 252 245 243 240 231 220 217 217 214 210 206 201 195 195 193 191 192
273 276 281 287 290 287 284 282 278 277 276 279 283 283 283 285 285 283 282 285 291 296 299 303 305 307 308 310 311 311 314 317 318 315 313 312 306 291 283 283 286 289 289 294 300 302 306 310 312 312 315 317 313 311 312 312 311 307 305 305 305 305 302 301 297 289 273 261 251 243 240 239 233 224 221 218 214 211 208 204 199 198 199 199 202
271 273 278 287 290 286 281 279 276 275 276 279 281 280 281 282 281 280 281 285 291 295 297 300 302 303 304 305 306 308 311 314 315 312 310 308 298 283 280 284 288 291 293 296 301 304 307 309 310 310 312 312 310 311 314 315 313 309 308 307 306 304 300 298 291 281 269 260 252 244 236 235 233 227 226 223 217 213 211 208 203 200 200 202 203
269 271 277 284 287 283 277 275 273 273 275 278 278 278 280 279 278 277 280 285 289 293 295 297 298 298 299 300 303 306 308 311 311 308 306 303 290 279 280 285 291 294 295 297 301 304 305 307 307 308 310 309 310 314 318 316 313 310 308 308 308 305 301 295 285 273 261 253 249 244 238 233 231 229 229 229 223 216 214 212 209 205 203 205 206
267 271 277 280 281 278 273 271 269 269 272 275 276 277 278 276 275 276 279 284 287 289 291 293 293 294 294 297 301 303 305 307 306 303 301 297 286 279 281 286 291 293 295 298 301 300 301 305 305 305 307 306 310 316 318 315 310 308 306 308 309 305 300 293 285 276 260 246 245 245 240 231 227 229 231 232 230 222 217 215 213 211 208 209 210
268 272 276 275 273 272 269 268 266 267 270 273 274 275 274 273 272 274 278 281 283 285 288 289 290 290 292 295 298 301 302 302 300 298 295 291 282 281 284 286 288 291 295 299 299 297 301 304 301 301 303 305 309 315 317 312 307 305 305 308 308 302 297 291 283 276 260 241 245 246 237 229 228 231 233 234 234 228 221 218 217 214 213 213 215
270 272 273 268 264 264 264 264 263 266 270 271 272 272 270 269 270 273 276 277 279 282 286 288 288 288 290 295 296 298 298 296 295 293 290 285 279 282 285 286 286 289 294 297 296 296 301 302 297 297 301 304 309 315 315 310 307 304 304 306 304 298 294 289 281 274 261 245 248 245 234 233 236 239 236 235 236 232 225 221 220 218 216 217 219
268 270 267 259 258 260 261 261 263 266 268 269 268 267 266 267 269 272 274 275 278 282 285 286 286 287 290 293 293 294 293 291 290 288 285 280 277 281 282 283 285 287 290 292 293 295 299 298 293 296 299 301 307 311 311 311 308 303 301 301 298 294 291 288 281 273 264 254 252 241 232 237 241 243 239 234 235 234 229 225 223 222 221 220 222
264 264 260 257 258 258 259 260 262 265 265 265 264 263 264 266 268 271 273 275 280 283 285 285 285 287 289 290 290 289 288 286 285 283 281 277 274 276 277 280 282 284 288 292 295 296 296 292 291 295 297 299 302 306 308 308 306 301 297 294 294 292 289 286 281 274 266 260 258 245 232 236 239 240 238 234 234 234 232 228 226 224 224 225 226
258 258 257 256 256 255 257 259 261 262 262 262 261 262 264 266 269 271 274 277 282 284 284 283 285 286 286 286 287 286 283 281 279 276 275 273 271 272 274 277 280 283 286 292 296 294 290 287 288 291 293 295 299 299 299 298 299 296 290 289 290 290 285 282 279 273 264 256 255 249 238 236 238 236 235 235 234 234 233 231 228 226 226 228 229
252 253 253 253 252 253 255 257 259 259 259 259 261 263 265 267 270 272 275 279 282 283 283 283 283 283 283 284 284 282 279 277 273 271 272 268 267 269 273 275 276 280 282 288 291 288 284 282 284 286 288 290 294 292 288 287 292 290 286 285 286 285 280 275 274 270 260 249 243 244 241 237 237 235 233 232 233 234 234 233 231 228 227 229 231
248 249 249 249 250 252 254 256 256 257 258 259 262 264 266 268 271 274 277 280 282 283 283 282 282 281 281 282 281 278 276 274 268 268 270 266 266 269 272 274 273 275 277 280 283 281 276 276 279 280 281 285 288 286 283 284 291 290 284 283 282 280 276 271 268 265 257 247 240 235 238 238 235 232 231 230 231 233 234 234 234 232 230 230 232
245 245 245 247 248 250 251 253 256 258 259 261 264 266 268 270 273 276 278 281 283 282 281 281 280 281 281 280 279 276 274 271 265 264 266 264 266 269 270 271 272 273 273 273 276 274 270 270 273 273 276 283 287 286 284 284 288 288 283 280 278 276 274 271 265 262 255 247 241 234 232 235 236 232 228 228 229 232 234 235 235 235 234 234 235
242 242 243 245 247 248 250 254 257 260 262 263 266 268 270 273 275 278 281 284 285 283 281 280 280 280 281 280 277 274 272 268 261 260 262 260 260 265 267 269 272 272 270 270 272 270 265 266 269 272 278 286 289 288 286 285 280 277 277 276 274 273 271 269 263 258 253 247 242 237 233 230 234 236 231 227 226 229 233 234 235 236 236 236 237
241 241 243 244 246 248 251 256 260 262 264 266 269 271 273 275 278 281 284 286 285 283 281 279 278 279 279 277 274 271 268 262 255 256 259 259 259 262 265 267 269 271 271 272 272 266 260 264 269 274 281 286 287 286 285 283 276 266 269 273 273 273 272 268 264 258 253 249 245 240 236 233 232 236 238 234 230 229 232 235 236 238 238 237 238
241 241 241 243 245 247 253 258 262 264 266 269 272 274 275 278 280 283 285 285 282 280 280 279 277 276 276 274 272 270 263 252 248 250 252 257 261 263 264 265 266 269 271 273 271 261 256 260 266 273 279 283 284 284 284 285 280 268 265 268 269 270 271 267 264 262 256 252 249 243 238 237 235 234 239 240 239 236 234 235 236 239 240 240 240
238 238 239 241 244 248 255 260 263 265 269 273 275 276 277 278 280 282 283 283 281 280 280 280 277 273 273 272 270 266 254 243 242 242 248 257 265 270 271 270 268 268 269 269 262 253 251 257 263 271 277 280 284 286 286 286 284 274 265 263 264 265 264 260 258 261 258 252 249 247 243 238 237 236 237 240 242 242 239 236 237 238 240 241 242
236 236 238 240 244 251 256 260 263 267 272 275 275 275 275 276 278 280 280 280 280 281 281 279 276 274 274 272 268 258 245 238 236 237 248 258 263 268 270 270 267 266 264 258 250 245 248 256 263 269 272 277 281 285 285 285 283 274 264 259 261 263 260 254 250 253 257 254 249 248 247 242 238 237 237 238 240 242 243 242 240 241 242 244 245
232 234 237 241 246 253 257 260 264 270 275 275 274 274 275 277 278 277 275 274 278 281 281 278 278 278 273 270 265 252 241 238 234 237 251 259 262 265 266 265 263 261 254 247 243 244 250 258 264 268 270 274 278 281 282 283 282 274 263 258 260 261 259 255 251 251 255 257 252 246 245 243 240 236 234 236 238 239 242 244 244 245 246 247 248
232 235 238 243 248 253 257 262 269 276 278 276 276 277 278 278 276 275 273 269 273 279 282 282 281 279 270 265 260 246 240 238 235 239 250 258 265 271 269 262 257 250 243 242 244 248 254 261 265 267 269 272 275 278 281 283 282 275 264 257 258 260 259 254 251 252 253 253 249 242 239 239 239 236 232 232 234 236 238 241 244 245 247 248 249
236 237 239 243 249 255 262 270 277 280 280 279 280 281 281 278 272 272 274 270 267 272 280 282 280 275 267 262 255 244 240 238 235 240 248 256 267 273 266 254 248 243 241 244 248 251 256 261 264 266 268 270 272 276 280 281 279 275 267 257 256 259 257 247 241 243 245 243 242 239 236 236 236 236 235 232 233 234 234 237 241 243 245 247 249
234 235 239 244 251 259 269 275 277 276 277 280 281 280 281 280 277 276 274 269 264 268 274 276 271 267 264 261 252 246 243 240 239 244 248 257 265 260 251 248 248 246 246 247 249 253 258 261 264 267 270 272 273 276 278 278 277 274 268 258 250 250 249 241 233 233 236 238 239 240 238 237 237 238 238 235 233 233 232 233 236 239 242 246 248
232 236 241 248 258 266 271 272 270 272 277 280 281 281 281 281 283 282 275 268 264 263 266 270 267 261 261 258 250 251 253 249 248 251 254 259 258 247 246 252 253 251 250 250 252 256 259 263 267 271 274 275 275 275 275 277 278 274 267 257 244 240 239 235 232 233 236 238 240 242 242 240 240 240 240 239 237 236 234 234 235 237 240 243 246
229 237 244 253 261 267 268 267 266 272 276 281 287 287 284 279 279 282 278 269 264 262 264 266 262 256 257 254 254 259 257 252 253 257 259 257 249 243 249 254 253 254 253 254 256 258 262 266 270 274 276 276 275 275 275 277 278 271 263 253 244 239 235 232 231 233 237 240 241 242 241 241 240 240 241 242 242 241 241 240 239 240 241 242 244
228 239 249 256 259 264 266 264 265 272 276 281 290 289 284 278 277 278 274 267 263 261 260 257 254 252 253 254 255 255 249 253 259 260 257 250 245 245 251 253 254 256 256 258 261 263 266 269 272 274 275 277 276 274 273 274 272 264 256 252 250 246 235 231 232 232 237 241 242 244 243 244 243 243 243 244 246 245 245 244 243 242 243 244 245
240 248 254 258 262 265 263 262 265 270 276 282 286 282 278 276 273 269 264 263 260 252 245 245 251 252 252 252 248 245 249 261 266 262 252 242 242 248 251 253 256 258 258 260 263 265 268 271 273 274 276 276 272 269 267 267 265 256 251 251 255 250 234 229 232 232 236 241 244 246 248 250 249 248 247 247 248 247 246 246 245 243 243 244 246
243 250 255 262 268 265 255 259 266 269 274 281 284 277 272 269 263 257 255 256 252 244 243 248 253 249 245 243 240 248 262 268 267 256 239 231 240 249 250 251 254 258 259 258 260 263 267 272 275 276 277 273 266 263 262 262 258 252 250 250 253 249 235 230 234 235 235 239 243 245 248 252 251 246 244 248 249 248 248 248 248 247 246 246 247
244 258 265 266 262 254 252 262 269 271 274 276 281 277 266 264 258 252 249 248 247 246 249 249 245 239 236 235 242 257 265 265 256 237 226 232 246 248 247 249 251 253 253 253 255 259 266 272 275 274 274 270 262 260 262 263 259 253 251 248 245 243 237 235 240 240 234 237 242 244 245 249 249 241 237 244 251 252 251 251 250 250 249 250 250
257 267 278 277 262 255 258 266 272 278 278 272 270 263 256 259 256 250 244 241 240 239 238 237 238 240 242 245 251 255 253 244 226 218 227 241 247 244 245 247 246 245 244 248 252 257 266 271 271 271 270 266 260 259 264 265 259 252 248 244 243 241 241 242 246 243 236 239 246 249 248 247 247 240 236 242 252 256 254 252 251 250 251 251 251
279 276 280 288 290 286 276 272 279 283 277 265 257 249 247 255 253 243 233 228 227 230 237 243 247 249 251 252 247 239 227 212 203 216 231 240 242 240 241 240 236 235 239 245 249 254 260 262 265 266 262 257 253 256 260 257 253 252 252 253 255 251 246 242 242 242 241 238 242 254 249 240 242 241 237 241 249 256 256 254 252 252 253 253 252
294 291 291 290 296 304 299 290 288 287 276 262 255 244 238 243 243 237 228 227 233 244 250 252 253 252 251 246 234 221 208 203 208 223 231 232 235 235 234 230 227 231 237 242 244 247 250 252 255 252 252 250 244 247 248 247 248 252 261 265 266 256 243 235 234 239 245 238 235 249 237 222 233 240 236 238 245 254 257 256 256 256 257 258 258
293 298 303 302 300 299 304 308 298 290 274 260 256 241 235 239 242 243 240 240 244 249 251 252 252 249 243 237 229 216 203 202 213 225 226 226 229 230 228 225 227 233 236 237 237 239 242 247 246 237 243 245 235 233 234 237 237 244 258 257 255 244 228 226 232 236 238 233 226 224 208 208 225 234 237 243 251 259 261 262 264 264 263 263 262
289 296 301 307 306 298 302 310 304 294 273 256 251 237 234 236 239 243 242 245 247 247 247 244 238 229 225 226 222 211 202 205 215 220 221 223 225 226 226 227 232 236 236 234 233 235 238 244 242 232 236 241 236 233 231 232 231 237 243 224 209 215 210 213 216 215 218 225 224 216 210 218 231 238 243 251 259 264 267 270 270 268 264 262 263
287 293 296 300 305 303 303 306 300 290 272 256 252 245 235 231 233 236 241 247 248 244 240 234 224 216 220 222 215 209 209 210 214 217 220 221 221 222 226 230 233 234 234 236 235 236 238 240 241 235 236 241 243 243 241 238 235 234 230 220 221 226 209 204 199 197 208 222 219 214 220 232 240 243 247 253 260 266 270 272 271 267 266 266 266
283 287 292 298 304 306 310 314 304 285 270 259 255 251 240 234 232 234 242 247 242 230 223 219 207 200 205 207 204 208 213 211 213 220 220 219 220 223 226 228 230 231 234 239 241 242 242 241 241 237 237 244 250 253 254 249 242 235 230 227 230 224 204 199 201 203 207 213 215 218 227 237 241 243 249 255 259 262 266 270 269 266 266 268 267
283 285 291 300 307 306 309 316 310 288 272 262 253 246 240 238 234 234 237 234 224 205 192 187 185 184 183 185 193 205 212 214 219 222 218 218 220 222 225 227 230 231 235 241 244 245 245 244 242 237 237 245 252 258 262 258 249 242 239 235 230 221 210 208 215 218 208 204 214 221 225 234 241 243 249 254 257 258 260 264 265 263 263 269 269
287 290 296 302 304 303 304 309 305 283 266 258 250 243 239 237 235 235 233 225 210 194 185 183 197 206 206 204 208 212 214 217 222 220 216 216 217 218 222 227 231 234 239 242 243 243 244 245 245 241 238 244 251 258 261 263 259 256 254 250 241 232 223 221 228 231 217 205 209 216 220 229 239 244 246 248 253 254 255 258 260 259 261 268 273
288 292 297 298 293 293 296 300 295 274 258 251 246 242 237 234 232 233 233 226 209 200 204 216 224 228 230 227 221 215 213 215 218 218 217 218 220 221 223 225 229 233 238 243 245 246 247 249 249 246 241 243 249 255 259 264 266 266 267 264 260 252 236 229 232 234 229 220 218 222 228 235 241 248 251 250 252 253 255 258 258 259 260 263 265
281 285 289 290 287 286 287 286 280 267 253 244 241 238 234 230 228 229 230 223 209 205 212 224 231 232 228 222 215 209 208 212 216 219 220 222 224 224 224 225 228 231 237 243 248 251 252 253 253 250 244 242 245 252 258 264 267 270 270 270 272 269 256 245 241 238 235 231 230 232 236 241 243 246 249 251 254 255 252 252 253 256 258 261 262
278 279 282 282 282 281 279 276 270 262 252 241 236 234 231 227 225 222 214 208 206 204 208 218 222 217 210 206 204 204 205 210 215 218 220 224 226 227 228 228 230 233 237 240 243 248 251 252 251 250 245 239 239 246 253 259 263 266 270 272 274 274 268 260 255 250 244 237 233 232 234 238 240 242 246 250 255 255 250 250 253 256 257 261 263
278 275 278 278 277 273 270 269 265 260 253 243 236 234 230 227 225 218 206 205 206 202 205 212 212 207 201 198 200 203 206 209 212 216 222 227 230 232 232 232 232 232 233 234 236 239 243 248 249 249 246 240 235 239 246 251 254 258 264 269 272 273 271 267 264 261 258 253 245 238 235 235 237 241 248 252 254 254 253 252 254 255 254 256 258
277 274 276 275 271 263 258 257 257 258 255 246 239 236 232 230 230 223 213 211 208 203 205 209 207 201 196 197 199 203 204 208 215 222 227 229 230 231 231 230 229 229 230 229 230 232 236 241 246 248 249 248 245 243 247 249 251 254 257 261 265 268 269 269 269 268 267 263 257 250 244 240 239 241 247 251 252 253 253 253 253 254 254 255 256
272 272 276 272 264 255 248 244 247 256 257 248 240 237 235 232 230 223 212 208 208 207 207 211 210 201 195 194 196 201 208 219 229 234 234 233 235 236 237 235 231 230 230 229 228 230 233 238 242 247 250 253 255 253 252 252 252 253 254 256 259 262 265 268 270 270 268 264 259 255 251 248 246 245 247 249 249 250 252 254 255 256 256 256 256
270 270 273 269 261 254 249 245 245 253 260 254 243 237 234 229 227 218 206 203 208 209 208 212 210 201 193 192 196 207 221 232 240 243 245 246 248 248 247 244 239 235 232 230 229 229 233 238 242 245 248 251 254 254 254 253 253 254 254 255 257 261 265 267 269 268 267 264 262 259 255 252 251 250 250 249 247 247 250 253 254 255 254 253 252
272 270 268 266 263 260 256 251 248 251 257 258 249 238 227 220 218 213 206 205 208 208 204 206 202 194 192 199 207 216 225 234 238 245 254 257 257 257 254 248 244 241 238 234 231 231 234 239 243 246 249 250 250 249 250 251 253 255 257 259 261 263 265 266 266 266 265 264 263 262 258 255 254 254 253 252 250 250 252 253 255 255 254 251 249
272 268 266 267 267 263 259 256 253 251 254 255 249 237 224 215 212 211 209 210 210 205 202 204 199 192 195 206 213 218 222 229 234 244 257 261 261 260 256 251 245 241 242 240 239 238 240 243 246 248 249 250 248 246 246 246 248 251 253 257 260 263 263 263 263 262 261 259 258 257 257 257 256 256 255 254 253 253 253 254 256 258 257 256 254
Height
5854 5855 5856 5856 5856 5855 5854 5853 5853 5852 5852 5852 5852 5852 5852 5852 5852 5851 5851 5850 5849 5849 5848 5848 5848 5848 5847 5847 5846 5846 5845 5844 5844 5843 5843 5843 5842 5842 5842 5842 5841 5841 5840 5840 5840 5840 5839 5839 5839 5838 5838 5837 5836 5836 5835 5835 5834 5834 5833 5833 5833 5833 5832 5832 5832 5832 5832 5832 5832 5832 5832 5832 5832 5832 5833 5833 5833 5833 5833 5833 5833 5833 5833 5833 5833
5852 5854 5855 5855 5855 5854 5853 5853 5852 5852 5852 5851 5851 5851 5851 5851 5851 5850 5850 5849 5848 5848 5847 5847 5847 5846 5846 5846 5845 5845 5844 5844 5843 5843 5843 5842 5842 5842 5841 5841 5841 5840 5840 5840 5840 5840 5839 5839 5838 5838 5837 5836 5836 5835 5835 5835 5834 5833 5833 5833 5833 5832 5832 5832 5832 5832 5832 5832 5832 5832 5832 5832 5832 5832 5833 5833 5833 5833 5833 5833 5833 5833 5834 5834 5834
5851 5852 5853 5854 5854 5853 5852 5852 5851 5851 5851 5850 5850 5850 5850 5850 5849 5849 5848 5848 5847 5847 5846 5846 5845 5845 5845 5844 5844 5843 5843 5843 5843 5842 5842 5842 5841 5841 5841 5840 5840 5840 5839 5839 5840 5839 5839 5838 5838 5837 5837 5836 5836 5835 5835 5834 5833 5833 5833 5833 5833 5832 5832 5832 5832 5832 5832 5832 5832 5832 5832 5832 5832 5832 5833 5833 5833 5833 5833 5833 5834 5834 5834 5834 5834
5850 5850 5851 5852 5852 5851 5851 5851 5851 5850 5850 5849 5849 5849 5849 5848 5848 5848 5847 5846 5846 5845 5845 5845 5845 5844 5843 5843 5843 5842 5842 5842 5842 5842 5841 5841 5841 5840 5840 5839 5839 5839 5838 5838 5839 5839 5838 5838 5837 5837 5836 5836 5835 5835 5834 5834 5833 5833 5833 5833 5832 5832 5832 5831 5831 5831 5832 5832 5831 5831 5831 5832 5832 5832 5833 5833 5833 5833 5833 5833 5834 5834 5834 5834 5834
5848 5849 5849 5849 5850 5850 5850 5850 5850 5849 5849 5848 5848 5847 5847 5847 5847 5846 5846 5845 5845 5844 5844 5844 5844 5843 5842 5842 5841 5841 5841 5842 5841 5841 5840 5840 5840 5839 5839 5838 5838 5838 5837 5837 5838 5838 5838 5837 5837 5836 5836 5835 5835 5835 5834 5833 5833 5833 5832 5832 5832 5832 5831 5831 5831 5831 5831 5831 5831 5831 5831 5831 5832 5832 5832 5833 5833 5833 5834 5834 5834 5834 5834 5834 5834
5847 5847 5847 5847 5848 5848 5848 5848 5848 5848 5847 5847 5846 5846 5846 5845 5845 5844 5844 5844 5843 5844 5843 5843 5843 5842 5841 5840 5840 5840 5840 5841 5840 5840 5840 5839 5839 5838 5838 5837 5837 5837 5836 5836 5837 5837 5837 5837 5836 5836 5836 5835 5835 5835 5834 5833 5833 5833 5832 5832 5831 5831 5831 5831 5831 5831 5831 5831 5831 5831 5831 5831 5831 5832 5832 5832 5833 5833 5834 5834 5834 5834 5835 5835 5835
5845 5845 5845 5845 5846 5846 5846 5846 5846 5846 5845 5845 5845 5844 5844 5844 5843 5843 5842 5842 5842 5842 5842 5842 5842 5841 5840 5840 5839 5839 5839 5839 5839 5839 5838 5838 5838 5837 5837 5836 5836 5835 5835 5836 5836 5836 5836 5836 5836 5836 5835 5835 5835 5834 5834 5833 5833 5832 5832 5832 5831 5831 5831 5831 5831 5831 5831 5831 5831 5831 5831 5831 5831 5831 5832 5832 5832 5833 5833 5834 5834 5834 5835 5835 5835
5843 5843 5843 5843 5844 5844 5844 5844 5844 5844 5844 5843 5843 5843 5842 5842 5841 5841 5841 5841 5841 5841 5841 5841 5840 5840 5839 5839 5838 5837 5837 5838 5838 5837 5837 5837 5836 5836 5836 5835 5835 5835 5834 5835 5836 5836 5836 5836 5836 5835 5835 5835 5834 5834 5833 5833 5832 5832 5832 5831 5831 5831 5831 5831 5831 5831 5831 5831 5831 5831 5831 5831 5831 5831 5831 5832 5832 5833 5833 5834 5834 5834 5835 5835 5835
5841 5841 5841 5842 5842 5842 5842 5842 5842 5842 5842 5841 5841 5841 5841 5840 5840 5839 5839 5839 5840 5839 5839 5839 5839 5838 5838 5837 5837 5836 5836 5836 5837 5836 5836 5835 5835 5835 5835 5834 5834 5834 5834 5835 5835 5835 5835 5835 5835 5835 5834 5834 5834 5834 5833 5832 5832 5831 5831 5831 5831 5830 5830 5831 5831 5831 5831 5831 5831 5831 5831 5831 5831 5831 5831 5832 5832 5833 5833 5834 5834 5834 5835 5835 5835
5839 5839 5840 5840 5841 5840 5840 5840 5840 5840 5840 5840 5840 5839 5839 5838 5838 5838 5838 5838 5838 5838 5838 5837 5837 5837 5837 5836 5836 5836 5835 5835 5835 5835 5834 5834 5834 5834 5834 5834 5833 5833 5833 5834 5834 5834 5834 5834 5834 5834 5834 5834 5834 5834 5833 5832 5831 5831 5830 5831 5830 5830 5830 5830 5831 5831 5831 5830 5830 5831 5831 5831 5831 5831 5831 5832 5832 5833 5833 5834 5834 5834 5834 5835 5835
5837 5837 5837 5838 5839 5838 5838 5838 5838 5838 5838 5838 5838 5838 5837 5837 5836 5836 5836 5836 5836 5836 5836 5836 5836 5835 5835 5835 5835 5835 5834 5833 5833 5833 5833 5833 5832 5833 5833 5833 5833 5832 5832 5833 5833 5833 5833 5833 5833 5833 5833 5834 5833 5833 5833 5832 5831 5830 5830 5830 5830 5830 5830 5830 5830 5831 5830 5830 5830 5830 5830 5831 5831 5831 5831 5831 5832 5833 5833 5834 5834 5834 5835 5835 5835
5835 5835 5835 5836 5836 5836 5836 5836 5836 5836 5836 5836 5836 5836 5835 5835 5834 5834 5834 5835 5835 5834 5834 5834 5834 5834 5834 5834 5834 5833 5833 5832 5832 5832 5832 5832 5832 5832 5832 5832 5832 5832 5831 5832 5832 5832 5832 5832 5832 5832 5833 5833 5833 5833 5833 5832 5831 5829 5829 5830 5830 5829 5829 5830 5830 5830 5830 5830 5830 5830 5830 5830 5831 5831 5831 5831 5832 5832 5833 5833 5834 5834 5835 5835 5835
5832 5833 5833 5833 5834 5834 5834 5834 5835 5835 5835 5834 5834 5833 5833 5832 5832 5832 5833 5833 5833 5833 5833 5833 5832 5832 5832 5832 5832 5832 5831 5831 5831 5830 5830 5831 5831 5831 5831 5831 5831 5831 5830 5831 5831 5831 5831 5831 5831 5832 5832 5832 5832 5832 5833 5832 5831 5829 5828 5828 5829 5829 5829 5829 5829 5830 5830 5830 5830 5830 5830 5830 5830 5830 5831 5831 5831 5832 5832 5833 5833 5834 5834 5835 5835
5830 5830 5830 5831 5831 5832 5832 5833 5833 5833 5832 5832 5831 5831 5830 5830 5830 5830 5831 5831 5831 5831 5831 5831 5831 5831 5831 5830 5830 5830 5830 5830 5829 5829 5829 5829 5830 5830 5830 5830 5830 5830 5829 5829 5830 5830 5830 5830 5830 5831 5831 5831 5831 5832 5832 5832 5831 5829 5827 5827 5828 5829 5829 5829 5829 5829 5830 5830 5830 5830 5830 5830 5830 5830 5830 5830 5831 5832 5832 5833 5833 5833 5834 5834 5835
5828 5828 5828 5829 5829 5830 5830 5830 5830 5830 5829 5829 5828 5828 5827 5827 5828 5829 5829 5829 5830 5830 5829 5829 5829 5829 5829 5828 5828 5828 5828 5828 5828 5828 5828 5828 5828 5829 5829 5829 5829 5829 5829 5829 5829 5829 5829 5829 5829 5830 5830 5830 5831 5831 5831 5832 5831 5829 5827 5826 5827 5828 5828 5828 5828 5829 5829 5830 5830 5830 5830 5830 5830 5830 5830 5830 5830 5831 5832 5832 5833 5833 5833 5834 5834
5825 5825 5826 5826 5827 5827 5828 5828 5828 5827 5827 5826 5825 5825 5825 5826 5827 5828 5828 5828 5828 5828 5828 5828 5828 5827 5827 5827 5827 5826 5826 5826 5826 5826 5826 5827 5827 5828 5828 5828 5828 5828 5828 5828 5827 5827 5828 5828 5828 5828 5829 5829 5829 5830 5830 5830 5831 5829 5827 5825 5827 5828 5828 5828 5828 5828 5829 5829 5829 5830 5830 5829 5829 5829 5829 5829 5830 5830 5831 5832 5832 5832 5833 5833 5834
5823 5823 5824 5824 5824 5825 5825 5825 5825 5824 5823 5823 5823 5823 5824 5825 5826 5826 5826 5826 5826 5826 5826 5826 5826 5825 5825 5825 5825 5825 5825 5825 5825 5825 5825 5826 5826 5826 5827 5827 5827 5827 5827 5827 5826 5826 5826 5826 5827 5827 5827 5827 5828 5828 5828 5829 5830 5829 5827 5825 5825 5827 5827 5827 5828 5828 5829 5829 5829 5829 5829 5829 5829 5829 5829 5829 5829 5830 5830 5831 5831 5832 5832 5833 5833
5821 5821 5821 5821 5822 5822 5822 5822 5822 5821 5821 5821 5821 5822 5823 5824 5824 5824 5824 5824 5824 5824 5824 5824 5824 5824 5824 5823 5823 5823 5823 5823 5823 5823 5824 5824 5825 5825 5826 5826 5826 5826 5826 5826 5825 5825 5825 5825 5825 5825 5825 5826 5826 5826 5827 5828 5829 5828 5827 5825 5824 5826 5826 5827 5827 5828 5828 5828 5828 5828 5828 5829 5829 5828 5828 5828 5828 5829 5829 5830 5831 5831 5832 5832 5833
5818 5818 5819 5819 5819 5819 5820 5819 5819 5819 5819 5819 5820 5821 5822 5822 5822 5822 5822 5823 5823 5822 5822 5822 5822 5822 5822 5822 5821 5821 5821 5821 5822 5822 5823 5823 5824 5824 5825 5825 5825 5825 5825 5825 5825 5824 5824 5824 5824 5824 5824 5824 5825 5825 5825 5826 5827 5827 5826 5824 5823 5824 5826 5826 5827 5827 5828 5828 5828 5828 5828 5828 5829 5829 5828 5828 5828 5828 5829 5829 5830 5831 5831 5832 5832
5815 5816 5816 5816 5816 5817 5817 5817 5817 5817 5817 5818 5819 5819 5820 5820 5820 5820 5820 5821 5821 5821 5821 5820 5820 5820 5820 5820 5820 5820 5820 5820 5820 5821 5821 5822 5822 5823 5823 5824 5824 5824 5823 5824 5824 5824 5824 5823 5823 5823 5822 5822 5823 5823 5823 5824 5825 5826 5826 5824 5823 5823 5825 5826 5826 5826 5827 5827 5827 5827 5828 5828 5829 5829 5829 5829 5828 5828 5829 5829 5830 5830 5831 5831 5832
5813 5813 5812 5812 5813 5814 5815 5815 5815 5815 5816 5816 5817 5818 5818 5818 5818 5818 5819 5819 5819 5819 5819 5818 5818 5818 5818 5818 5818 5818 5818 5819 5819 5820 5820 5821 5821 5821 5822 5822 5822 5822 5822 5823 5823 5823 5823 5823 5822 5821 5820 5820 5821 5821 5821 5822 5823 5825 5825 5824 5822 5822 5824 5825 5825 5825 5826 5826 5826 5827 5827 5828 5829 5829 5829 5829 5829 5828 5828 5829 5829 5829 5830 5830 5831
5809 5809 5809 5810 5811 5812 5813 5813 5813 5814 5814 5815 5816 5816 5816 5816 5816 5817 5817 5817 5817 5817 5817 5816 5816 5817 5817 5817 5817 5817 5817 5818 5818 5818 5819 5819 5819 5820 5820 5820 5820 5820 5821 5821 5821 5822 5822 5822 5821 5820 5819 5818 5819 5819 5819 5820 5822 5823 5824 5823 5822 5822 5823 5824 5825 5825 5825 5825 5826 5826 5827 5828 5828 5829 5829 5829 5828 5828 5828 5828 5828 5829 5829 5830 5830
5805 5805 5806 5807 5809 5810 5811 5811 5811 5812 5813 5814 5814 5813 5813 5814 5814 5815 5815 5815 5815 5815 5815 5815 5815 5815 5816 5816 5816 5816 5816 5816 5817 5817 5817 5817 5818 5819 5819 5819 5819 5819 5819 5819 5820 5820 5820 5820 5820 5819 5818 5817 5817 5817 5817 5818 5820 5821 5822 5822 5821 5821 5822 5823 5824 5824 5823 5824 5826 5826 5827 5827 5828 5828 5828 5828 5828 5828 5828 5828 5828 5828 5828 5829 5829
5800 5802 5804 5806 5808 5808 5809 5809 5810 5812 5812 5812 5812 5811 5811 5812 5812 5812 5813 5813 5813 5813 5813 5814 5814 5814 5814 5814 5814 5814 5815 5815 5815 5815 5815 5816 5816 5817 5817 5817 5817 5817 5817 5818 5818 5819 5819 5818 5818 5817 5817 5816 5816 5816 5815 5816 5817 5819 5820 5821 5821 5821 5822 5822 5823 5823 5822 5823 5825 5825 5825 5826 5826 5826 5827 5827 5827 5827 5827 5827 5827 5827 5828 5828 5828
5797 5800 5803 5804 5806 5806 5807 5808 5810 5811 5811 5810 5810 5810 5810 5810 5811 5811 5811 5811 5811 5811 5812 5812 5812 5812 5812 5812 5812 5813 5813 5813 5813 5814 5814 5814 5815 5815 5814 5815 5815 5815 5816 5816 5817 5817 5817 5817 5817 5816 5815 5815 5815 5814 5814 5814 5815 5817 5818 5820 5820 5820 5821 5822 5822 5822 5821 5821 5822 5823 5823 5824 5824 5824 5825 5825 5825 5826 5826 5826 5826 5827 5827 5827 5827
5797 5800 5801 5802 5803 5804 5806 5808 5809 5809 5809 5809 5808 5809 5809 5809 5809 5809 5809 5809 5810 5810 5810 5811 5811 5811 5811 5810 5811 5811 5811 5812 5812 5812 5813 5813 5813 5813 5813 5813 5813 5814 5815 5815 5816 5816 5816 5816 5815 5814 5814 5814 5814 5813 5812 5813 5814 5815 5817 5818 5819 5819 5820 5820 5820 5819 5818 5818 5819 5820 5821 5821 5822 5823 5823 5824 5824 5824 5825 5825 5825 5826 5826 5826 5826
5795 5797 5798 5799 5801 5804 5805 5806 5807 5807 5807 5807 5807 5807 5808 5808 5808 5808 5808 5808 5808 5808 5809 5809 5809 5809 5809 5809 5809 5810 5810 5810 5811 5811 5811 5811 5812 5812 5812 5812 5812 5813 5814 5814 5814 5814 5814 5814 5814 5813 5813 5813 5812 5812 5811 5811 5812 5813 5815 5816 5818 5818 5817 5817 5816 5816 5815 5816 5817 5819 5819 5820 5821 5821 5822 5822 5822 5823 5823 5823 5824 5824 5825 5825 5825
5792 5794 5796 5797 5800 5802 5803 5804 5804 5804 5805 5804 5805 5806 5806 5806 5806 5806 5806 5806 5806 5806 5807 5807 5807 5808 5808 5808 5808 5809 5809 5809 5809 5809 5809 5810 5810 5811 5811 5811 5811 5812 5812 5813 5813 5813 5813 5813 5812 5812 5811 5811 5811 5811 5810 5810 5811 5812 5813 5814 5815 5816 5815 5814 5814 5814 5814 5816 5817 5817 5818 5818 5819 5820 5820 5820 5821 5821 5822 5822 5823 5823 5823 5824 5824
5790 5792 5794 5796 5798 5799 5800 5801 5802 5802 5802 5802 5803 5804 5804 5804 5804 5804 5804 5804 5804 5804 5805 5805 5806 5807 5807 5807 5807 5808 5808 5808 5808 5808 5808 5808 5809 5809 5810 5810 5810 5811 5811 5811 5811 5811 5811 5811 5811 5810 5810 5810 5809 5810 5810 5810 5810 5810 5811 5811 5813 5813 5812 5812 5812 5813 5814 5815 5815 5815 5816 5817 5817 5818 5818 5818 5819 5820 5821 5822 5822 5822 5822 5823 5823
5789 5790 5792 5794 5796 5797 5798 5799 5800 5800 5800 5800 5802 5802 5802 5802 5802 5802 5802 5802 5802 5803 5803 5804 5804 5805 5806 5806 5806 5807 5807 5806 5807 5807 5807 5807 5808 5808 5809 5809 5809 5810 5810 5810 5810 5810 5810 5810 5810 5809 5809 5809 5809 5809 5810 5809 5809 5809 5809 5809 5810 5810 5810 5810 5811 5812 5813 5813 5813 5814 5814 5815 5816 5816 5817 5818 5819 5820 5820 5821 5821 5821 5821 5821 5821
5789 5789 5791 5793 5794 5796 5797 5797 5798 5798 5797 5798 5799 5799 5799 5799 5800 5800 5800 5800 5800 5801 5801 5802 5803 5804 5805 5805 5805 5805 5805 5805 5805 5805 5806 5806 5807 5807 5808 5808 5808 5809 5809 5809 5808 5808 5808 5808 5809 5808 5808 5808 5809 5808 5809 5808 5808 5807 5808 5808 5808 5808 5808 5809 5810 5811 5811 5811 5812 5813 5813 5814 5815 5816 5816 5817 5818 5819 5819 5819 5819 5819 5819 5819 5820
5787 5787 5790 5791 5793 5794 5795 5796 5795 5795 5795 5797 5798 5798 5798 5797 5798 5798 5798 5798 5798 5799 5800 5801 5801 5802 5803 5803 5803 5803 5803 5803 5804 5804 5805 5805 5806 5806 5807 5807 5808 5808 5808 5807 5807 5807 5807 5807 5808 5808 5808 5808 5808 5808 5807 5807 5807 5806 5807 5807 5807 5807 5807 5808 5809 5810 5810 5810 5811 5812 5812 5813 5814 5814 5815 5816 5816 5817 5817 5817 5817 5817 5818 5818 5818
5785 5788 5790 5790 5792 5792 5793 5794 5793 5793 5793 5795 5796 5796 5795 5795 5795 5796 5796 5796 5796 5797 5798 5799 5800 5800 5801 5801 5801 5801 5801 5802 5802 5803 5804 5805 5805 5805 5806 5807 5807 5807 5806 5806 5806 5806 5806 5806 5807 5807 5807 5807 5807 5807 5807 5806 5806 5806 5806 5806 5806 5806 5806 5807 5808 5809 5809 5810 5810 5811 5811 5812 5812 5812 5813 5814 5815 5815 5815 5815 5815 5816 5816 5816 5816
5785 5787 5789 5789 5791 5791 5792 5792 5791 5791 5791 5792 5793 5793 5793 5793 5794 5794 5794 5795 5795 5796 5797 5797 5798 5798 5799 5799 5799 5799 5800 5800 5801 5802 5803 5804 5804 5805 5806 5806 5806 5806 5806 5805 5805 5806 5806 5806 5806 5806 5807 5807 5807 5806 5806 5805 5805 5805 5805 5805 5805 5805 5805 5807 5808 5808 5809 5810 5810 5810 5810 5810 5811 5811 5811 5812 5813 5813 5814 5814 5813 5813 5813 5814 5814
5784 5786 5787 5788 5789 5789 5790 5789 5789 5789 5789 5790 5790 5791 5791 5791 5792 5792 5793 5793 5794 5795 5795 5795 5796 5796 5797 5797 5797 5797 5798 5799 5800 5801 5802 5803 5803 5804 5805 5805 5805 5805 5805 5805 5805 5805 5804 5804 5805 5806 5806 5806 5806 5805 5805 5805 5804 5805 5805 5805 5806 5806 5806 5807 5807 5808 5809 5809 5809 5809 5809 5809 5809 5810 5810 5811 5812 5812 5812 5812 5811 5811 5811 5812 5812
5783 5784 5784 5785 5786 5787 5787 5787 5787 5786 5787 5788 5788 5788 5789 5789 5790 5790 5791 5792 5793 5793 5793 5793 5794 5794 5794 5795 5795 5796 5796 5797 5798 5799 5800 5802 5802 5803 5804 5804 5804 5804 5804 5804 5803 5803 5803 5803 5804 5805 5805 5805 5805 5804 5804 5804 5804 5804 5805 5805 5806 5806 5806 5807 5808 5808 5808 5808 5809 5809 5808 5808 5809 5809 5810 5810 5811 5811 5810 5810 5810 5810 5810 5810 5810
5783 5782 5783 5783 5785 5786 5786 5785 5785 5785 5785 5786 5786 5786 5787 5788 5788 5789 5790 5791 5791 5792 5791 5791 5792 5792 5792 5793 5793 5794 5795 5795 5797 5798 5799 5800 5801 5802 5802 5803 5803 5803 5803 5802 5802 5802 5802 5802 5803 5804 5804 5804 5804 5803 5803 5803 5804 5804 5804 5805 5805 5805 5806 5807 5807 5807 5808 5808 5808 5808 5808 5808 5808 5808 5809 5809 5809 5809 5809 5809 5809 5809 5809 5808 5808
5781 5781 5781 5782 5783 5784 5784 5783 5783 5784 5784 5785 5785 5785 5785 5786 5786 5787 5788 5789 5790 5790 5789 5790 5790 5791 5791 5792 5792 5793 5794 5794 5795 5797 5798 5799 5800 5801 5802 5802 5802 5802 5802 5801 5801 5801 5801 5801 5802 5803 5803 5803 5802 5802 5802 5803 5803 5803 5803 5803 5804 5805 5805 5806 5807 5807 5807 5807 5807 5807 5807 5807 5807 5807 5807 5807 5808 5808 5808 5808 5808 5808 5807 5807 5807
5779 5779 5780 5781 5782 5782 5782 5781 5781 5781 5782 5783 5783 5783 5784 5784 5784 5785 5786 5787 5787 5787 5787 5787 5788 5789 5790 5791 5792 5793 5793 5794 5795 5796 5797 5798 5799 5800 5801 5801 5802 5801 5801 5801 5801 5800 5800 5800 5801 5802 5803 5802 5802 5801 5801 5802 5803 5802 5802 5803 5804 5804 5805 5805 5806 5806 5806 5806 5806 5806 5806 5806 5806 5806 5806 5807 5807 5807 5807 5807 5807 5806 5806 5806 5805
5778 5778 5778 5779 5779 5779 5779 5779 5778 5779 5780 5781 5781 5782 5782 5782 5782 5783 5784 5785 5785 5785 5786 5786 5787 5788 5789 5789 5790 5792 5792 5793 5794 5795 5796 5798 5798 5799 5800 5800 5801 5801 5800 5800 5800 5799 5799 5800 5800 5801 5802 5802 5801 5800 5801 5802 5802 5802 5802 5803 5803 5804 5804 5804 5805 5805 5805 5805 5805 5806 5806 5805 5805 5806 5806 5806 5806 5806 5806 5806 5805 5805 5805 5804 5803
5777 5777 5777 5777 5778 5778 5777 5777 5776 5777 5778 5779 5779 5779 5780 5780 5781 5781 5782 5783 5784 5784 5785 5785 5786 5787 5788 5788 5789 5790 5791 5792 5793 5794 5796 5797 5798 5799 5799 5800 5800 5800 5800 5799 5799 5799 5798 5799 5799 5800 5801 5800 5800 5800 5800 5801 5802 5801 5801 5802 5803 5803 5803 5804 5804 5804 5804 5804 5805 5805 5805 5804 5804 5805 5805 5805 5805 5805 5805 5805 5804 5804 5804 5803 5802
5775 5775 5776 5776 5776 5776 5776 5775 5775 5775 5776 5777 5777 5777 5778 5779 5779 5780 5781 5781 5782 5783 5784 5785 5786 5787 5787 5788 5788 5789 5790 5791 5793 5794 5795 5796 5797 5798 5798 5799 5799 5799 5799 5798 5798 5798 5798 5798 5798 5799 5800 5800 5799 5799 5799 5800 5801 5801 5801 5801 5802 5802 5803 5803 5803 5803 5803 5803 5803 5804 5804 5803 5803 5803 5804 5804 5804 5804 5804 5803 5803 5803 5803 5802 5801
5774 5774 5774 5774 5775 5775 5774 5774 5774 5774 5775 5775 5776 5776 5776 5777 5778 5779 5779 5780 5781 5782 5783 5784 5785 5786 5786 5787 5787 5788 5789 5791 5792 5793 5794 5795 5796 5796 5797 5797 5797 5797 5797 5797 5798 5798 5797 5797 5798 5799 5799 5799 5799 5799 5799 5799 5800 5800 5800 5800 5801 5801 5802 5802 5802 5802 5802 5802 5802 5802 5802 5802 5802 5802 5802 5803 5802 5802 5803 5802 5802 5802 5801 5801 5800
5772 5773 5773 5773 5773 5773 5772 5772 5772 5772 5773 5774 5774 5774 5775 5775 5777 5777 5778 5779 5780 5780 5781 5782 5783 5784 5785 5786 5787 5787 5789 5790 5791 5792 5793 5794 5794 5795 5796 5796 5796 5796 5796 5796 5797 5797 5796 5796 5797 5798 5798 5798 5798 5798 5798 5798 5799 5799 5799 5799 5800 5800 5801 5801 5801 5801 5802 5802 5801 5801 5801 5801 5801 5800 5800 5801 5800 5801 5801 5801 5800 5800 5800 5799 5799
5770 5770 5771 5771 5771 5771 5770 5770 5771 5771 5771 5772 5772 5772 5772 5773 5774 5775 5776 5777 5778 5779 5780 5781 5781 5783 5784 5785 5785 5787 5788 5789 5790 5791 5792 5792 5793 5793 5794 5794 5794 5795 5795 5795 5795 5795 5795 5795 5796 5796 5797 5798 5797 5797 5797 5797 5797 5797 5797 5798 5799 5799 5800 5801 5801 5801 5801 5801 5801 5800 5800 5800 5799 5799 5799 5799 5799 5799 5799 5799 5799 5799 5799 5798 5798
5768 5768 5769 5769 5769 5769 5769 5769 5770 5770 5770 5770 5770 5770 5771 5771 5772 5773 5774 5775 5776 5777 5778 5780 5781 5781 5782 5783 5784 5785 5787 5788 5788 5789 5790 5791 5791 5792 5793 5793 5793 5793 5794 5794 5794 5794 5794 5794 5795 5795 5796 5796 5796 5796 5796 5796 5795 5795 5796 5797 5797 5798 5799 5800 5800 5800 5800 5800 5799 5799 5799 5798 5798 5798 5797 5797 5797 5797 5797 5798 5798 5798 5798 5797 5797
5765 5766 5766 5767 5767 5767 5768 5768 5768 5768 5768 5768 5768 5768 5769 5769 5770 5770 5772 5773 5774 5776 5777 5778 5779 5780 5780 5781 5782 5783 5785 5786 5787 5788 5789 5790 5791 5791 5792 5792 5792 5792 5793 5793 5793 5793 5793 5793 5794 5794 5794 5795 5795 5795 5794 5794 5794 5794 5795 5795 5796 5797 5798 5798 5799 5799 5799 5799 5798 5798 5797 5797 5796 5796 5796 5795 5795 5795 5796 5796 5796 5796 5796 5796 5796
5763 5763 5764 5764 5765 5766 5766 5767 5767 5767 5767 5766 5766 5766 5767 5767 5768 5769 5770 5772 5773 5774 5775 5776 5777 5777 5778 5779 5780 5781 5783 5784 5785 5786 5788 5789 5790 5790 5791 5791 5791 5791 5791 5792 5792 5792 5792 5793 5793 5793 5793 5793 5794 5794 5793 5793 5792 5793 5793 5794 5795 5796 5797 5797 5798 5797 5797 5797 5797 5797 5796 5795 5795 5794 5794 5794 5793 5794 5794 5794 5794 5794 5794 5794 5794
5761 5761 5761 5762 5763 5764 5764 5765 5765 5765 5765 5765 5764 5764 5765 5765 5766 5767 5768 5770 5771 5771 5773 5773 5773 5774 5775 5776 5778 5779 5781 5782 5784 5785 5786 5787 5788 5788 5789 5789 5789 5790 5790 5790 5791 5791 5791 5791 5791 5791 5791 5792 5792 5792 5792 5791 5791 5791 5792 5793 5794 5795 5795 5796 5796 5796 5796 5796 5796 5795 5794 5794 5793 5793 5792 5792 5792 5792 5792 5792 5792 5792 5792 5793 5793
5758 5759 5759 5760 5761 5762 5763 5763 5763 5764 5764 5763 5762 5762 5763 5763 5764 5765 5767 5768 5768 5769 5770 5771 5770 5771 5772 5774 5776 5778 5779 5780 5782 5783 5784 5784 5785 5786 5786 5787 5788 5788 5788 5789 5789 5789 5790 5790 5790 5790 5790 5790 5791 5791 5791 5790 5790 5790 5790 5791 5792 5793 5794 5795 5795 5795 5795 5795 5794 5793 5793 5792 5792 5792 5791 5791 5791 5791 5790 5790 5790 5790 5791 5791 5791
5756 5757 5758 5758 5759 5760 5761 5761 5762 5762 5762 5761 5761 5761 5761 5761 5762 5763 5764 5765 5767 5768 5769 5769 5769 5769 5771 5773 5775 5776 5777 5778 5780 5781 5782 5782 5783 5784 5785 5785 5786 5786 5786 5787 5787 5788 5788 5788 5788 5788 5788 5788 5789 5789 5790 5790 5790 5789 5790 5790 5791 5792 5793 5794 5794 5794 5794 5793 5792 5792 5792 5792 5792 5791 5791 5790 5790 5789 5789 5789 5789 5789 5789 5789 5789